S-NET D

Last updated on July 6, 2021, 3:39 p.m. UTC

1 43186U 18014G   21186.73687638  .00000288  00000-0  29952-4 0  9991
2 43186  97.6760  93.9956 0011473  27.1130 333.0689 14.97077214187033
UTC
Height (km)
Latitude
Longitude
Inclination
Orbital Period
UTC large
Height (km)
Speed (km/s)
/
Latitude / Longitude
Inclination (degrees)
Orbital Period (minutes)
Azimuth
Elevation
Range (km)
Doppler Factor
iOS Compass Heading
iOS Angle